Location: Asarope
(8.2500°N, 4.4833°E)
Time: 01:00:23
(UTC+00:00)

Hubble Space Telescope - Pass Details

Date: 10 August 2021
Orbit: 535 x 539 km, 28.5° (Epoch: 24 September)

Event Time Altitude Azimuth Distance (km) Brightness Sun altitude
Rises 19:17:57 0° 271° (W) 2,669 5.7 -19.2°
Reaches altitude 10° 19:20:58 10° 248° (WSW) 1,778 4.1 -19.9°
Maximum altitude 19:23:27 16° 211° (SSW) 1,460 3.1 -20.5°
Enters shadow 19:24:46 14° 189° (S) 1,554 3.0 -20.8°
